Orbital Elements at Epoch 2459000.5 (2020-May-31.0) TDB
Reference: JPL 12 (heliocentric ecliptic J2000)
Element | Value | Uncertainty (1-sigma) | Units |
e | .1559146531828514 | 7.8709e-08 | |
a | 3.020795365929084 | 2.9876e-08 | au |
q | 2.549809104113886 | 2.3626e-07 | au |
i | .7935057432072152 | 7.7308e-06 | deg |
node | 166.3638961113492 | 0.00047125 | deg |
peri | 39.04064989892507 | 0.00047188 | deg |
M | 65.53954843132014 | 1.8993e-05 | deg |
tp | 2458651.374693128812 (2019-Jun-16.87469313) | 0.00010176 | TDB |
period | 1917.698755665597 5.25 | 2.845e-05 7.789e-08 | d yr |
n | .1877250005697849 | 2.7849e-09 | deg/d |
Q | 3.491781627744282 | 3.4534e-08 | au |
|
| | Orbit Determination Parameters
Additional Information
|